Dallas Addison, TX

4:17 AM CDT on April 25, 2018 (GMT -0500)
Addison

Weather History for KADS - October, 2012

Change the Weather History Date:

Wednesday, October 31, 2012

  Actual Average Record
Temperature  
Mean Temperature 66 °F -  
Max Temperature 80 °F 69 °F 87 °F (2003)
Min Temperature 53 °F 53 °F 46 °F (2002)
Cooling Degree Days 2    
Growing Degree Days 16 (Base 50)    
Moisture  
Dew Point 45 °F    
Average Humidity 51    
Maximum Humidity 77    
Minimum Humidity 26    
Precipitation  
Precipitation 0.00 in - - ()
Sea Level Pressure  
Sea Level Pressure 29.98 in    
Wind  
Wind Speed 3 mph (WSW)    
Max Wind Speed 8 mph    
Max Gust Speed -    
Visibility 11 miles    
Events      
Averages and records for this station are not official NWS values.
T = Trace of Precipitation, MM = Missing Value Source: NWS Daily Summary

Daily Weather History Graph

Daily Weather History Graph

Search for Another Location

Airport or City:

Astronomy

Oct. 31, 2012 Rise Set
Actual Time 7:44 AM CDT 6:36 PM CDT
Civil Twilight 7:19 AM CDT 7:01 PM CDT
Nautical Twilight 6:50 AM CDT 7:31 PM CDT
Astronomical Twilight 6:21 AM CDT 8:00 PM CDT
Moon 7:54 PM CDT (10/31) 9:21 AM CDT (10/31)
Length of Visible Light 11h 42m
Length of Day
10h 51m
Full, 97% of the Moon is Illuminated
Oct 31
Full
Nov 6
Last Quarter
Nov 13
New
Nov 20
First Quarter
Nov 28
Full

Hourly Weather History & Observations

Time (CDT) Temp. Dew Point Humidity Pressure Visibility Wind Dir Wind Speed Gust Speed Precip Events Conditions
12:15 AM 62.6 °F 42.8 °F 48% 29.96 in 10.0 mi SSW 4.6 mph - N/A   Clear
12:35 AM 62.6 °F 42.8 °F 48% 29.96 in 10.0 mi SSW 4.6 mph - N/A   Clear
12:55 AM 62.6 °F 42.8 °F 48% 29.96 in 10.0 mi SSW 6.9 mph - N/A   Clear
1:15 AM 62.6 °F 42.8 °F 48% 29.96 in 10.0 mi SSW 6.9 mph - N/A   Clear
1:35 AM 62.6 °F 42.8 °F 48% 29.96 in 10.0 mi SW 4.6 mph - N/A   Clear
1:55 AM 60.8 °F 42.8 °F 52% 29.96 in 10.0 mi SW 3.5 mph - N/A   Clear
2:15 AM 60.8 °F 42.8 °F 52% 29.96 in 10.0 mi Calm Calm - N/A   Clear
2:35 AM 60.8 °F 42.8 °F 52% 29.96 in 10.0 mi Calm Calm - N/A   Clear
2:55 AM 59.0 °F 42.8 °F 55% 29.96 in 10.0 mi SSW 3.5 mph - N/A   Clear
3:15 AM 59.0 °F 42.8 °F 55% 29.96 in 10.0 mi SW 3.5 mph - N/A   Clear
3:35 AM 59.0 °F 44.6 °F 59% 29.96 in 10.0 mi Calm Calm - N/A   Clear
3:55 AM 59.0 °F 44.6 °F 59% 29.96 in 10.0 mi Calm Calm - N/A   Clear
4:35 AM 57.2 °F 44.6 °F 63% 29.95 in 10.0 mi Calm Calm - N/A   Clear
4:55 AM 57.2 °F 44.6 °F 63% 29.95 in 10.0 mi Calm Calm - N/A   Clear
5:15 AM 57.2 °F 44.6 °F 63% 29.95 in 10.0 mi Calm Calm - N/A   Clear
5:35 AM 57.2 °F 44.6 °F 63% 29.96 in 10.0 mi Calm Calm - N/A   Clear
5:50 AM 57.2 °F 46.4 °F 67% 29.97 in 13.0 mi Calm Calm - N/A   Clear
5:55 AM 57.2 °F 44.6 °F 63% 29.96 in 10.0 mi Calm Calm - N/A   Clear
6:52 AM 55.4 °F 46.4 °F 72% 29.98 in 10.0 mi SW 3.5 mph - N/A   Clear
7:47 AM 53.6 °F 46.4 °F 77% 29.98 in 13.0 mi WSW 4.6 mph - N/A   Clear
9:55 AM 62.6 °F 46.4 °F 55% 30.02 in 15.0 mi NNW 8.1 mph - N/A   Clear
10:47 AM 64.4 °F 42.8 °F 45% 30.03 in 15.0 mi NW 6.9 mph - N/A   Clear
11:51 AM 69.8 °F 42.8 °F 38% 30.04 in 13.0 mi WNW 8.1 mph - N/A   Clear
12:50 PM 73.4 °F 44.6 °F 36% 30.02 in 13.0 mi NW 4.6 mph - N/A   Clear
1:47 PM 77.0 °F 44.6 °F 32% 30.01 in 13.0 mi NNW 3.5 mph - N/A   Partly Cloudy
2:47 PM 78.8 °F 42.8 °F 28% 29.96 in 13.0 mi Calm Calm - N/A   Partly Cloudy
4:50 PM 80.6 °F 42.8 °F 26% 29.97 in 13.0 mi Calm Calm - N/A   Clear
5:47 PM 80.6 °F 42.8 °F 26% 29.97 in 13.0 mi West 3.5 mph - N/A   Clear
6:47 PM 77.0 °F 44.6 °F 32% 29.98 in 13.0 mi Calm Calm - N/A   Clear
7:47 PM 68.0 °F 46.4 °F 46% 29.99 in 25.0 mi Calm Calm - N/A   Clear
8:47 PM 66.2 °F 46.4 °F 49% 30.00 in 25.0 mi Calm Calm - N/A   Clear
9:47 PM 66.2 °F 48.2 °F 52% 30.01 in 25.0 mi Calm Calm - N/A   Clear
10:15 PM 66.2 °F 46.4 °F 49% 30.00 in 10.0 mi Calm Calm - N/A   Clear
10:35 PM 64.4 °F 48.2 °F 56% 30.01 in 10.0 mi Calm Calm - N/A   Clear
10:55 PM 62.6 °F 46.4 °F 55% 30.01 in 10.0 mi Calm Calm - N/A   Clear
11:15 PM 64.4 °F 46.4 °F 52% 30.01 in 10.0 mi Calm Calm - N/A   Clear
11:35 PM 62.6 °F 48.2 °F 59% 30.01 in 10.0 mi Calm Calm - N/A   Clear
11:55 PM 62.6 °F 46.4 °F 55% 30.01 in 10.0 mi Calm Calm - N/A   Clear